Weather in Malyy Atlym

Russia / Khanty-Mansi Autonomous Okrug — Yugra     62°13′31″N   66°57′48″E
temp.,
°C
wind,
m/s
gust,
m/s
humid.,
%
clouds,
%
prec.,
mm/h
press.,
hPa
HPBL,
m
26 february, fri
fri2623:00−28nne119834 0.0 102619
02:00−30nnw019938 0.0 102619
05:00−30wnw119926 0.0 102619
08:00−30sw111000 0.0 102619
11:00−24sw12948 0.0 1026154
14:00−22ssw239376 0.0 1026209
17:00−24sse229742 0.0 102623
20:00−26sse2310030 0.0 102630
27 february, sat
sat2723:00−27s229955 0.0 102621
02:00−28s2210074 0.0 102623
05:00−28s2310080 0.0 102631
08:00−29sse2310092 0.0 102634
11:00−25sse359792 0.0 1026200
14:00−22sse359575 0.0 1025240
17:00−24se249858 0.0 1025121
20:00−27se239934 0.0 102560
28 february, sun
sun2823:00−28se2310053 0.0 102528
02:00−28se2310068 0.0 102421
05:00−29se2210067 0.0 102420
08:00−29ese239935 0.0 102325
11:00−23se359221 0.0 1023248
14:00−19ese34880 0.0 1022325
17:00−20e35940 0.0 1021138
20:00−25ese33960 0.0 102157
1 march, mon
mon123:00−27e22980 0.0 102019
02:00−27ene111007 0.0 102019
05:00−28ene119911 0.0 102019
08:00−28e11990 0.0 101919
11:00−21s129311 0.0 1018173
14:00−19ssw229279 0.0 1017190
17:00−21sse229750 0.0 101551
20:00−22sse3310026 0.0 101363
2 march, tue
tue223:00−22s3510058 0.0 1012108
02:00−22s379984 0.0 1010135
05:00−22s489987 0.0 1007178
08:00−19s51095100 0.0 1005305
11:00−16s61192100 0.0 1003424
14:00−14s61190100 0.0 1001516
17:00−14s51194100 0.1 1000536
20:00−13ssw41095100 0.9 999516